Time,TemperatureF,DewpointF,PressureIn,WindDirection,WindDirectionDegrees,WindSpeedMPH,WindSpeedGustMPH,Humidity,HourlyPrecipIn,Conditions,Clouds,dailyrainin,SoftwareType,DateUTC
2013-02-14 00:01:00,36.0,4.0,30.09,SSW,210,8.0,10.0,26,-99.99,,,-99.99,,2013-02-14 07:01:00,
2013-02-14 00:11:00,36.0,5.0,30.09,SW,227,8.0,9.0,26,-99.99,,,-99.99,,2013-02-14 07:11:00,
2013-02-14 00:21:00,34.0,3.0,30.09,SW,230,8.0,9.0,27,-99.99,,,-99.99,,2013-02-14 07:21:00,
2013-02-14 00:31:00,33.0,3.0,30.09,SW,224,7.0,8.0,28,-99.99,,,-99.99,,2013-02-14 07:31:00,
2013-02-14 00:41:00,34.0,5.0,30.09,SW,227,8.0,10.0,28,-99.99,,,-99.99,,2013-02-14 07:41:00,
2013-02-14 00:51:00,33.0,4.0,30.08,SSW,212,8.0,10.0,28,-99.99,,,-99.99,,2013-02-14 07:51:00,
2013-02-14 01:01:00,35.0,5.0,30.09,SW,225,7.0,12.0,28,-99.99,,,-99.99,,2013-02-14 08:01:00,
2013-02-14 01:11:00,33.0,5.0,30.09,SW,221,8.0,9.0,29,-99.99,,,-99.99,,2013-02-14 08:11:00,
2013-02-14 01:21:00,34.0,5.0,30.08,SW,222,8.0,10.0,28,-99.99,,,-99.99,,2013-02-14 08:21:00,
2013-02-14 01:32:00,32.0,4.0,30.08,SW,236,8.0,9.0,29,-99.99,,,-99.99,,2013-02-14 08:32:00,
2013-02-14 01:43:00,30.0,3.0,30.08,WSW,240,7.0,8.0,31,-99.99,,,-99.99,,2013-02-14 08:43:00,
2013-02-14 01:52:00,29.0,3.0,30.08,WSW,254,6.0,7.0,32,-99.99,,,-99.99,,2013-02-14 08:52:00,
2013-02-14 02:02:00,29.0,3.0,30.08,West,261,6.0,6.0,32,-99.99,,,-99.99,,2013-02-14 09:02:00,
2013-02-14 02:11:00,29.0,3.0,30.08,WSW,255,5.0,6.0,32,-99.99,,,-99.99,,2013-02-14 09:11:00,
2013-02-14 02:21:00,29.0,3.0,30.08,West,274,6.0,6.0,32,-99.99,,,-99.99,,2013-02-14 09:21:00,
2013-02-14 02:31:00,29.0,3.0,30.08,WSW,245,5.0,6.0,32,-99.99,,,-99.99,,2013-02-14 09:31:00,
2013-02-14 02:42:00,31.0,4.0,30.08,WSW,252,5.0,6.0,32,-99.99,,,-99.99,,2013-02-14 09:42:00,
2013-02-14 02:51:00,31.0,4.0,30.08,WSW,248,5.0,6.0,32,-99.99,,,-99.99,,2013-02-14 09:51:00,
2013-02-14 03:02:00,29.0,4.0,30.07,WNW,298,6.0,6.0,33,-99.99,,,-99.99,,2013-02-14 10:02:00,
2013-02-14 03:11:00,30.0,5.0,30.07,West,275,6.0,7.0,33,-99.99,,,-99.99,,2013-02-14 10:11:00,
2013-02-14 03:21:00,29.0,5.0,30.07,WSW,239,5.0,6.0,34,-99.99,,,-99.99,,2013-02-14 10:21:00,
2013-02-14 03:31:00,29.0,4.0,30.08,WNW,290,3.0,5.0,34,-99.99,,,-99.99,,2013-02-14 10:31:00,
2013-02-14 03:42:00,29.0,4.0,30.08,WNW,303,3.0,5.0,34,-99.99,,,-99.99,,2013-02-14 10:42:00,
2013-02-14 03:52:00,28.0,4.0,30.08,WSW,258,5.0,6.0,35,-99.99,,,-99.99,,2013-02-14 10:52:00,
2013-02-14 04:02:00,27.0,4.0,30.08,West,269,5.0,6.0,36,-99.99,,,-99.99,,2013-02-14 11:02:00,
2013-02-14 04:11:00,27.0,4.0,30.08,SW,235,7.0,8.0,37,-99.99,,,-99.99,,2013-02-14 11:11:00,
2013-02-14 04:21:00,25.0,2.0,30.08,WNW,294,6.0,6.0,37,-99.99,,,-99.99,,2013-02-14 11:21:00,
2013-02-14 04:32:00,24.0,3.0,30.08,NW,308,5.0,5.0,39,-99.99,,,-99.99,,2013-02-14 11:32:00,
2013-02-14 04:42:00,25.0,3.0,30.08,NW,320,6.0,7.0,37,-99.99,,,-99.99,,2013-02-14 11:42:00,
2013-02-14 04:52:00,26.0,4.0,30.08,WNW,301,5.0,5.0,37,-99.99,,,-99.99,,2013-02-14 11:52:00,
2013-02-14 05:02:00,24.0,3.0,30.08,NNW,333,5.0,5.0,39,-99.99,,,-99.99,,2013-02-14 12:02:00,
2013-02-14 05:12:00,23.0,2.0,30.08,NW,304,3.0,3.0,40,-99.99,,,-99.99,,2013-02-14 12:12:00,
2013-02-14 05:22:00,24.0,3.0,30.09,NW,309,3.0,5.0,39,-99.99,,,-99.99,,2013-02-14 12:22:00,
2013-02-14 05:32:00,24.0,3.0,30.09,West,264,5.0,6.0,39,-99.99,,,-99.99,,2013-02-14 12:32:00,
2013-02-14 05:42:00,22.0,2.0,30.09,NW,314,6.0,6.0,41,-99.99,,,-99.99,,2013-02-14 12:42:00,
2013-02-14 05:53:00,23.0,2.0,30.09,NW,304,5.0,5.0,40,-99.99,,,-99.99,,2013-02-14 12:53:00,
2013-02-14 06:01:00,23.0,3.0,30.10,West,267,3.0,5.0,41,-99.99,,,-99.99,,2013-02-14 13:01:00,
2013-02-14 06:11:00,23.0,3.0,30.11,WSW,238,5.0,6.0,42,-99.99,,,-99.99,,2013-02-14 13:11:00,
2013-02-14 06:21:00,24.0,3.0,30.11,SW,236,5.0,6.0,41,-99.99,,,-99.99,,2013-02-14 13:21:00,
2013-02-14 06:31:00,23.0,3.0,30.11,West,277,5.0,6.0,41,-99.99,,,-99.99,,2013-02-14 13:31:00,
2013-02-14 06:41:00,22.0,2.0,30.11,NW,317,3.0,3.0,42,-99.99,,,-99.99,,2013-02-14 13:41:00,
2013-02-14 06:51:00,22.0,3.0,30.12,NW,314,2.0,3.0,42,-99.99,,,-99.99,,2013-02-14 13:51:00,
2013-02-14 07:01:00,23.0,3.0,30.12,NNW,333,6.0,7.0,41,-99.99,,,-99.99,,2013-02-14 14:01:00,
2013-02-14 07:11:00,24.0,4.0,30.13,North,0,0.0,3.0,41,-99.99,,,-99.99,,2013-02-14 14:11:00,
2013-02-14 07:21:00,25.0,4.0,30.13,NNW,343,7.0,7.0,41,-99.99,,,-99.99,,2013-02-14 14:21:00,
2013-02-14 07:31:00,24.0,4.0,30.13,NNW,341,3.0,5.0,42,-99.99,,,-99.99,,2013-02-14 14:31:00,
2013-02-14 07:41:00,26.0,5.0,30.13,NNW,337,5.0,5.0,40,-99.99,,,-99.99,,2013-02-14 14:41:00,
2013-02-14 07:52:00,27.0,5.0,30.14,WNW,297,3.0,3.0,38,-99.99,,,-99.99,,2013-02-14 14:52:00,
2013-02-14 08:01:00,29.0,6.0,30.14,NW,304,2.0,3.0,37,-99.99,,,-99.99,,2013-02-14 15:01:00,
2013-02-14 08:11:00,30.0,6.0,30.14,NNW,340,5.0,5.0,36,-99.99,,,-99.99,,2013-02-14 15:11:00,
2013-02-14 08:21:00,32.0,7.0,30.15,NNW,340,5.0,6.0,35,-99.99,,,-99.99,,2013-02-14 15:21:00,
2013-02-14 08:32:00,33.0,8.0,30.15,NNW,348,3.0,5.0,34,-99.99,,,-99.99,,2013-02-14 15:32:00,
2013-02-14 08:41:00,34.0,9.0,30.15,North,10,5.0,6.0,34,-99.99,,,-99.99,,2013-02-14 15:41:00,
2013-02-14 08:52:00,36.0,10.0,30.15,North,353,5.0,7.0,33,-99.99,,,-99.99,,2013-02-14 15:52:00,
2013-02-14 09:01:00,36.0,9.0,30.15,North,353,5.0,6.0,32,-99.99,,,-99.99,,2013-02-14 16:01:00,
2013-02-14 09:11:00,37.0,10.0,30.15,NNE,29,3.0,6.0,32,-99.99,,,-99.99,,2013-02-14 16:11:00,
2013-02-14 09:21:00,38.0,10.0,30.15,NNE,14,6.0,7.0,31,-99.99,,,-99.99,,2013-02-14 16:21:00,
2013-02-14 09:32:00,38.0,11.0,30.15,NNE,18,5.0,7.0,31,-99.99,,,-99.99,,2013-02-14 16:32:00,
2013-02-14 09:41:00,40.0,11.0,30.14,NE,34,5.0,7.0,30,-99.99,,,-99.99,,2013-02-14 16:41:00,
2013-02-14 09:51:00,40.0,11.0,30.14,North,1,6.0,8.0,30,-99.99,,,-99.99,,2013-02-14 16:51:00,
2013-02-14 10:01:00,41.0,12.0,30.14,North,353,5.0,6.0,30,-99.99,,,-99.99,,2013-02-14 17:01:00,
2013-02-14 10:11:00,42.0,11.0,30.14,NW,309,5.0,6.0,28,-99.99,,,-99.99,,2013-02-14 17:11:00,
2013-02-14 10:21:00,43.0,13.0,30.14,NNW,332,5.0,8.0,29,-99.99,,,-99.99,,2013-02-14 17:21:00,
2013-02-14 10:31:00,44.0,13.0,30.14,NNW,333,3.0,6.0,28,-99.99,,,-99.99,,2013-02-14 17:31:00,
2013-02-14 10:42:00,45.0,13.0,30.14,NW,308,6.0,8.0,27,-99.99,,,-99.99,,2013-02-14 17:42:00,
2013-02-14 10:52:00,46.0,14.0,30.13,NW,315,5.0,7.0,27,-99.99,,,-99.99,,2013-02-14 17:52:00,
2013-02-14 11:01:00,47.0,14.0,30.13,NW,322,6.0,8.0,26,-99.99,,,-99.99,,2013-02-14 18:01:00,
2013-02-14 11:11:00,48.0,14.0,30.13,NW,325,6.0,8.0,25,-99.99,,,-99.99,,2013-02-14 18:11:00,
2013-02-14 11:23:00,49.0,15.0,30.13,North,1,6.0,8.0,25,-99.99,,,-99.99,,2013-02-14 18:23:00,
2013-02-14 11:32:00,50.0,15.0,30.13,West,279,5.0,7.0,24,-99.99,,,-99.99,,2013-02-14 18:32:00,
2013-02-14 11:42:00,49.0,15.0,30.12,SW,219,3.0,5.0,25,-99.99,,,-99.99,,2013-02-14 18:42:00,
2013-02-14 11:51:00,49.0,14.0,30.11,NNW,337,2.0,5.0,24,-99.99,,,-99.99,,2013-02-14 18:51:00,
2013-02-14 12:02:00,51.0,14.0,30.10,North,359,5.0,7.0,23,-99.99,,,-99.99,,2013-02-14 19:02:00,
2013-02-14 12:11:00,51.0,14.0,30.10,WNW,289,5.0,7.0,23,-99.99,,,-99.99,,2013-02-14 19:11:00,
2013-02-14 12:21:00,52.0,14.0,30.10,North,359,3.0,8.0,22,-99.99,,,-99.99,,2013-02-14 19:21:00,
2013-02-14 12:31:00,53.0,15.0,30.09,NNE,13,5.0,6.0,22,-99.99,,,-99.99,,2013-02-14 19:31:00,
2013-02-14 12:41:00,53.0,14.0,30.09,NNW,346,7.0,9.0,21,-99.99,,,-99.99,,2013-02-14 19:41:00,
2013-02-14 12:51:00,54.0,15.0,30.09,NW,320,3.0,12.0,21,-99.99,,,-99.99,,2013-02-14 19:51:00,
2013-02-14 13:01:00,55.0,15.0,30.08,West,276,7.0,10.0,20,-99.99,,,-99.99,,2013-02-14 20:01:00,
2013-02-14 13:11:00,54.0,14.0,30.08,NW,320,9.0,12.0,20,-99.99,,,-99.99,,2013-02-14 20:11:00,
2013-02-14 13:21:00,56.0,14.0,30.08,NNW,333,9.0,13.0,19,-99.99,,,-99.99,,2013-02-14 20:21:00,
2013-02-14 13:31:00,55.0,15.0,30.07,NW,311,8.0,10.0,20,-99.99,,,-99.99,,2013-02-14 20:31:00,
2013-02-14 13:41:00,55.0,15.0,30.06,NW,308,8.0,12.0,20,-99.99,,,-99.99,,2013-02-14 20:41:00,
2013-02-14 13:52:00,57.0,15.0,30.07,West,270,9.0,14.0,19,-99.99,,,-99.99,,2013-02-14 20:52:00,
2013-02-14 14:02:00,58.0,14.0,30.06,West,273,9.0,12.0,18,-99.99,,,-99.99,,2013-02-14 21:02:00,
2013-02-14 14:11:00,58.0,15.0,30.06,West,276,8.0,15.0,18,-99.99,,,-99.99,,2013-02-14 21:11:00,
2013-02-14 14:21:00,59.0,14.0,30.05,WSW,258,5.0,9.0,17,-99.99,,,-99.99,,2013-02-14 21:21:00,
2013-02-14 14:31:00,59.0,14.0,30.06,WSW,251,7.0,12.0,17,-99.99,,,-99.99,,2013-02-14 21:31:00,
2013-02-14 14:42:00,60.0,13.0,30.06,WNW,283,8.0,13.0,16,-99.99,,,-99.99,,2013-02-14 21:42:00,
2013-02-14 14:51:00,60.0,14.0,30.05,WSW,240,8.0,14.0,16,-99.99,,,-99.99,,2013-02-14 21:51:00,
2013-02-14 15:02:00,59.0,13.0,30.05,SW,217,7.0,12.0,16,-99.99,,,-99.99,,2013-02-14 22:02:00,
2013-02-14 15:11:00,59.0,13.0,30.04,NW,320,12.0,15.0,16,-99.99,,,-99.99,,2013-02-14 22:11:00,
2013-02-14 15:21:00,60.0,13.0,30.04,WNW,301,10.0,13.0,16,-99.99,,,-99.99,,2013-02-14 22:21:00,
2013-02-14 15:31:00,60.0,13.0,30.03,NW,310,9.0,15.0,16,-99.99,,,-99.99,,2013-02-14 22:31:00,
2013-02-14 15:42:00,60.0,12.0,30.02,NW,320,8.0,13.0,15,-99.99,,,-99.99,,2013-02-14 22:42:00,
2013-02-14 15:51:00,60.0,13.0,30.02,North,11,5.0,6.0,16,-99.99,,,-99.99,,2013-02-14 22:51:00,
2013-02-14 16:01:00,60.0,13.0,30.01,NNE,33,5.0,7.0,16,-99.99,,,-99.99,,2013-02-14 23:01:00,
2013-02-14 16:11:00,59.0,13.0,30.01,NNW,344,6.0,7.0,16,-99.99,,,-99.99,,2013-02-14 23:11:00,
2013-02-14 16:21:00,60.0,12.0,30.01,NW,319,7.0,12.0,15,-99.99,,,-99.99,,2013-02-14 23:21:00,
2013-02-14 16:32:00,60.0,12.0,30.01,WNW,297,8.0,10.0,15,-99.99,,,-99.99,,2013-02-14 23:32:00,
2013-02-14 16:41:00,60.0,11.0,30.01,WNW,299,10.0,17.0,14,-99.99,,,-99.99,,2013-02-14 23:41:00,
2013-02-14 16:52:00,60.0,11.0,30.01,NW,320,12.0,15.0,14,-99.99,,,-99.99,,2013-02-14 23:52:00,
2013-02-14 17:01:00,60.0,11.0,30.01,WNW,303,12.0,15.0,14,-99.99,,,-99.99,,2013-02-15 00:01:00,
2013-02-14 17:11:00,60.0,10.0,30.02,NW,325,8.0,12.0,14,-99.99,,,-99.99,,2013-02-15 00:11:00,
2013-02-14 17:22:00,59.0,10.0,30.02,NNW,327,10.0,14.0,14,-99.99,,,-99.99,,2013-02-15 00:22:00,
2013-02-14 17:32:00,59.0,11.0,30.02,NNW,335,13.0,16.0,15,-99.99,,,-99.99,,2013-02-15 00:32:00,
2013-02-14 17:42:00,58.0,11.0,30.03,NNW,342,10.0,14.0,15,-99.99,,,-99.99,,2013-02-15 00:42:00,
2013-02-14 17:51:00,58.0,11.0,30.03,NNW,335,10.0,14.0,15,-99.99,,,-99.99,,2013-02-15 00:51:00,
2013-02-14 18:02:00,57.0,10.0,30.03,NNW,334,10.0,14.0,15,-99.99,,,-99.99,,2013-02-15 01:02:00,
2013-02-14 18:11:00,57.0,11.0,30.03,NNW,337,8.0,13.0,16,-99.99,,,-99.99,,2013-02-15 01:11:00,
2013-02-14 18:21:00,56.0,11.0,30.04,NNW,339,6.0,8.0,17,-99.99,,,-99.99,,2013-02-15 01:21:00,
2013-02-14 18:31:00,55.0,11.0,30.04,NNW,342,7.0,8.0,17,-99.99,,,-99.99,,2013-02-15 01:31:00,
2013-02-14 18:41:00,54.0,11.0,30.04,NNW,338,7.0,8.0,18,-99.99,,,-99.99,,2013-02-15 01:41:00,
2013-02-14 18:51:00,53.0,11.0,30.05,NNW,334,6.0,7.0,18,-99.99,,,-99.99,,2013-02-15 01:51:00,
2013-02-14 19:01:00,53.0,11.0,30.05,NNW,337,6.0,6.0,18,-99.99,,,-99.99,,2013-02-15 02:01:00,
2013-02-14 19:11:00,54.0,11.0,30.05,NNW,337,5.0,6.0,18,-99.99,,,-99.99,,2013-02-15 02:11:00,
2013-02-14 19:21:00,53.0,12.0,30.05,NNW,333,5.0,5.0,19,-99.99,,,-99.99,,2013-02-15 02:21:00,
2013-02-14 19:31:00,53.0,11.0,30.05,NNW,342,6.0,6.0,19,-99.99,,,-99.99,,2013-02-15 02:31:00,
2013-02-14 19:41:00,53.0,12.0,30.05,NNW,343,6.0,7.0,19,-99.99,,,-99.99,,2013-02-15 02:41:00,
2013-02-14 19:52:00,52.0,11.0,30.05,North,356,6.0,6.0,19,-99.99,,,-99.99,,2013-02-15 02:52:00,
2013-02-14 20:02:00,52.0,11.0,30.06,NE,38,10.0,15.0,19,-99.99,,,-99.99,,2013-02-15 03:02:00,
2013-02-14 20:11:00,50.0,11.0,30.06,NE,42,7.0,8.0,21,-99.99,,,-99.99,,2013-02-15 03:11:00,
2013-02-14 20:22:00,49.0,12.0,30.06,NE,44,7.0,8.0,22,-99.99,,,-99.99,,2013-02-15 03:22:00,
2013-02-14 20:32:00,49.0,12.0,30.06,NE,50,7.0,8.0,22,-99.99,,,-99.99,,2013-02-15 03:32:00,
2013-02-14 20:42:00,49.0,12.0,30.06,NE,46,7.0,8.0,22,-99.99,,,-99.99,,2013-02-15 03:42:00,
2013-02-14 20:51:00,49.0,13.0,30.07,ENE,66,5.0,5.0,23,-99.99,,,-99.99,,2013-02-15 03:51:00,
2013-02-14 21:01:00,48.0,13.0,30.07,NE,56,3.0,5.0,24,-99.99,,,-99.99,,2013-02-15 04:01:00,
2013-02-14 21:11:00,49.0,13.0,30.07,ENE,65,3.0,3.0,23,-99.99,,,-99.99,,2013-02-15 04:11:00,
2013-02-14 21:21:00,49.0,13.0,30.08,NE,55,5.0,5.0,23,-99.99,,,-99.99,,2013-02-15 04:21:00,
2013-02-14 21:32:00,49.0,13.0,30.08,NE,48,3.0,3.0,23,-99.99,,,-99.99,,2013-02-15 04:32:00,
2013-02-14 21:42:00,47.0,13.0,30.09,NE,56,3.0,3.0,25,-99.99,,,-99.99,,2013-02-15 04:42:00,
2013-02-14 21:52:00,45.0,11.0,30.09,ENE,59,2.0,2.0,25,-99.99,,,-99.99,,2013-02-15 04:52:00,
2013-02-14 22:02:00,43.0,11.0,30.10,ENE,57,3.0,3.0,26,-99.99,,,-99.99,,2013-02-15 05:02:00,
2013-02-14 22:12:00,42.0,10.0,30.11,North,0,0.0,2.0,27,-99.99,,,-99.99,,2013-02-15 05:12:00,
2013-02-14 22:22:00,42.0,11.0,30.11,NNE,23,5.0,6.0,27,-99.99,,,-99.99,,2013-02-15 05:22:00,
2013-02-14 22:32:00,41.0,11.0,30.12,WNW,300,6.0,7.0,28,-99.99,,,-99.99,,2013-02-15 05:32:00,
2013-02-14 22:42:00,39.0,10.0,30.12,NW,320,6.0,7.0,30,-99.99,,,-99.99,,2013-02-15 05:42:00,
2013-02-14 22:52:00,41.0,10.0,30.12,NNW,328,6.0,7.0,28,-99.99,,,-99.99,,2013-02-15 05:52:00,
2013-02-14 23:02:00,42.0,11.0,30.12,NNW,343,7.0,8.0,28,-99.99,,,-99.99,,2013-02-15 06:02:00,
2013-02-14 23:11:00,42.0,12.0,30.12,NNW,336,6.0,7.0,28,-99.99,,,-99.99,,2013-02-15 06:11:00,
2013-02-14 23:22:00,41.0,11.0,30.13,NNW,340,7.0,8.0,28,-99.99,,,-99.99,,2013-02-15 06:22:00,
2013-02-14 23:31:00,42.0,11.0,30.13,NNW,346,8.0,9.0,27,-99.99,,,-99.99,,2013-02-15 06:31:00,
2013-02-14 23:42:00,42.0,12.0,30.13,NNW,330,5.0,6.0,28,-99.99,,,-99.99,,2013-02-15 06:42:00,
2013-02-14 23:51:00,42.0,11.0,30.13,NNW,336,7.0,9.0,27,-99.99,,,-99.99,,2013-02-15 06:51:00,